START_TIME,STEP,MOV.,M29,t_acc.,H22,t_acc.,H26,t_acc.,H30,t_acc.
1979-07-01 12:19:14.260 ,7,0,,0,,0,,0,,0
1979-07-01 12:19:20.860 ,5,1,0.,24.0,0.,24.0,0.,24.0,0.,24.0
1979-07-01 12:19:44.860 ,0,0,0.,24.0,0.,24.0,0.,24.0,0.,24.0
1979-07-01 12:20:08.860 ,0,0,0.,24.0,0.,24.0,0.,24.0,0.,24.0
1979-07-01 12:20:32.860 ,0,0,0.,24.0,0.,24.0,0.,24.0,0.,24.0
1979-07-01 12:20:56.860 ,5,1,0.,24.0,0.,24.0,0.,24.0,0.,24.0
1979-07-01 12:21:20.860 ,1,1,0.,24.0,0.,24.0,0.,24.0,0.,24.0
1979-07-01 12:21:44.860 ,2,1,0.,24.0,0.,24.0,0.,24.0,0.,24.0
1979-07-01 12:22:08.860 ,6,1,0.,24.0,0.,24.0,0.,24.0,0.,24.0
1979-07-01 12:22:32.860 ,5,1,0.,24.0,0.,24.0,0.,24.0,0.,24.0
1979-07-01 12:22:56.860 ,1,1,0.,24.0,0.,24.0,0.,24.0,0.,24.0
1979-07-01 12:23:20.860 ,2,1,0.,24.0,0.,24.0,0.,24.0,0.,24.0
1979-07-01 12:23:44.860 ,6,1,0.,24.0,0.,24.0,0.,24.0,0.,24.0
1979-07-01 12:24:08.860 ,5,1,0.,24.0,0.,24.0,0.,24.0,0.,24.0
1979-07-01 12:24:32.860 ,1,1,0.,24.0,0.,24.0,0.,24.0,0.,24.0
1979-07-01 12:24:56.860 ,2,1,0.,24.0,0.,24.0,0.,24.0,0.,24.0
1979-07-01 12:25:20.860 ,6,1,0.,24.0,0.,24.0,0.,24.0,0.,24.0
1979-07-01 12:25:44.860 ,5,1,0.,24.0,0.,24.0,0.,24.0,0.,24.0
1979-07-01 12:26:08.860 ,1,1,0.,24.0,0.,24.0,0.,24.0,0.,24.0
1979-07-01 12:26:32.860 ,2,1,0.,24.0,0.,24.0,0.,24.0,0.,24.0
1979-07-01 12:26:56.860 ,6,1,0.,24.0,0.,24.0,0.,24.0,0.,24.0
1979-07-01 12:27:20.860 ,5,1,0.,24.0,0.,24.0,0.,24.0,0.,24.0
1979-07-01 12:27:44.860 ,1,1,0.,24.0,0.,24.0,0.,24.0,0.,24.0
1979-07-01 12:28:08.860 ,2,1,0.,24.0,0.,24.0,0.,24.0,0.,24.0
1979-07-01 12:28:32.860 ,6,1,0.,24.0,0.,24.0,0.,24.0,0.,24.0
1979-07-01 12:28:32.860 ,6,1,0.,24.0,0.,24.0,0.,24.0,0.,24.0
1979-07-01 12:28:56.860 ,5,1,0.,24.0,0.,24.0,0.,24.0,0.,24.0
1979-07-01 12:29:20.860 ,1,1,0.,24.0,0.,24.0,0.,24.0,0.,24.0
1979-07-01 12:29:44.860 ,0,0,0.,24.0,0.,24.0,0.,24.0,0.,24.0
1979-07-01 12:30:08.860 ,0,0,0.,24.0,0.,24.0,0.,24.0,0.,24.0
1979-07-01 12:30:32.860 ,5,1,0.,24.0,0.,24.0,0.,24.0,0.,24.0
1979-07-01 12:30:56.860 ,5,0,0.,24.0,0.,24.0,0.,24.0,0.,24.0
1979-07-01 12:31:20.860 ,4,1,0.,24.0,0.,24.0,0.,24.0,0.,24.0
1979-07-01 12:31:44.860 ,4,0,0.,24.0,0.,24.0,0.,24.0,0.,24.0
1979-07-01 12:32:08.860 ,3,1,0.,24.0,0.,24.0,0.,24.0,0.,24.0
1979-07-01 12:32:32.860 ,3,0,0.,24.0,0.,24.0,0.,24.0,0.,24.0
1979-07-01 12:32:56.860 ,2,1,0.,24.0,0.,24.0,0.,24.0,0.,24.0
1979-07-01 12:33:20.860 ,2,0,0.,24.0,0.,24.0,0.,24.0,0.,24.0
1979-07-01 12:33:44.860 ,1,1,0.,24.0,0.,24.0,0.,24.0,0.,24.0
1979-07-01 12:34:08.860 ,1,0,0.,24.0,0.,24.0,0.,24.0,0.,24.0
1979-07-01 12:34:32.860 ,0,1,0.,24.0,0.,24.0,0.,24.0,0.,24.0
1979-07-01 12:34:56.860 ,0,0,0.,24.0,0.,24.0,0.,24.0,0.,24.0
1979-07-01 12:35:20.860 ,0,1,0.,24.0,0.,24.0,0.,24.0,0.,24.0
1979-07-01 12:35:44.860 ,0,0,0.,24.0,0.,24.0,0.,24.0,0.,24.0
1979-07-01 12:36:08.860 ,1,1,0.,24.0,0.,24.0,0.,24.0,0.,24.0
1979-07-01 12:36:32.860 ,1,0,0.,24.0,0.,24.0,0.,24.0,0.,24.0
1979-07-01 12:36:56.860 ,2,1,0.,24.0,0.,24.0,0.,24.0,0.,24.0
1979-07-01 12:37:20.860 ,2,0,0.,24.0,0.,24.0,0.,24.0,0.,24.0
1979-07-01 12:37:44.860 ,3,1,0.,24.0,0.,24.0,0.,24.0,0.,24.0
1979-07-01 12:38:08.860 ,3,0,0.,24.0,0.,24.0,0.,24.0,0.,24.0
1979-07-01 12:38:32.860 ,4,1,0.,24.0,0.,24.0,0.,24.0,0.,24.0
1979-07-01 12:38:56.860 ,4,0,0.,24.0,0.,24.0,0.,24.0,0.,24.0
1979-07-01 12:39:20.860 ,5,1,0.,24.0,0.,24.0,0.,24.0,0.,24.0
1979-07-01 12:39:44.860 ,5,0,0.,24.0,0.,24.0,0.,24.0,0.,24.0
1979-07-01 12:40:08.860 ,6,1,0.,24.0,0.,24.0,0.,24.0,0.,24.0
1979-07-01 12:40:32.860 ,6,0,0.,24.0,0.,24.0,0.,24.0,0.,24.0
1979-07-01 12:40:56.860 ,7,1,0.,24.0,0.,24.0,0.,24.0,0.,24.0
1979-07-01 12:41:20.860 ,7,0,0.,24.0,0.,24.0,0.,24.0,0.,24.0
1979-07-01 12:41:44.860 ,7,1,0.,24.0,0.,24.0,0.,24.0,0.,24.0
1979-07-01 12:42:08.860 ,7,0,0.,24.0,0.,24.0,0.,24.0,0.,24.0
1979-07-01 12:42:32.860 ,6,1,0.,24.0,0.,24.0,0.,24.0,0.,24.0
1979-07-01 12:42:56.860 ,6,0,0.,24.0,0.,24.0,0.,24.0,0.,24.0
1979-07-01 12:43:20.860 ,5,1,0.,24.0,0.,24.0,0.,24.0,0.,24.0
1979-07-01 12:43:44.860 ,5,0,0.,24.0,0.,24.0,0.,24.0,0.,24.0
1979-07-01 12:44:08.860 ,4,1,0.,24.0,0.,24.0,0.,24.0,0.,24.0
1979-07-01 12:44:32.860 ,4,0,0.,24.0,0.,24.0,0.,24.0,0.,24.0
1979-07-01 12:44:56.860 ,3,1,0.,24.0,0.,24.0,0.,24.0,0.,24.0
1979-07-01 12:45:20.860 ,3,0,0.,24.0,0.,24.0,0.,24.0,0.,24.0
1979-07-01 12:45:44.860 ,2,1,0.,24.0,0.,24.0,0.,24.0,0.,24.0
1979-07-01 12:46:08.860 ,2,0,0.,24.0,0.,24.0,0.,24.0,0.,24.0
1979-07-01 12:46:32.860 ,1,1,0.,24.0,0.,24.0,0.,24.0,0.,24.0
1979-07-01 12:46:56.860 ,1,0,0.,24.0,0.,24.0,0.,24.0,0.,24.0
1979-07-01 12:47:20.860 ,0,1,0.,24.0,0.,24.0,0.,24.0,0.,24.0
1979-07-01 12:47:44.860 ,0,0,0.,24.0,0.,24.0,0.,24.0,0.,24.0
1979-07-01 12:48:08.860 ,0,1,0.,24.0,0.,24.0,0.,24.0,0.,24.0
1979-07-01 12:48:32.860 ,0,0,0.,24.0,0.,24.0,0.,24.0,0.,24.0
1979-07-01 12:48:56.860 ,1,1,0.,24.0,0.,24.0,0.,24.0,0.,24.0
1979-07-01 12:49:20.860 ,1,0,0.,24.0,0.,24.0,0.,24.0,0.,24.0
1979-07-01 12:49:44.860 ,2,1,0.,24.0,0.,24.0,0.,24.0,0.,24.0
1979-07-01 12:50:08.860 ,2,0,1.,24.0,0.,24.0,0.,24.0,0.,24.0
1979-07-01 12:50:32.860 ,3,1,0.,24.0,0.,24.0,0.,24.0,0.,24.0
1979-07-01 12:50:56.860 ,3,0,0.,24.0,0.,24.0,0.,24.0,0.,24.0
1979-07-01 12:51:20.860 ,4,1,0.,24.0,0.,24.0,0.,24.0,0.,24.0
1979-07-01 12:51:44.860 ,4,0,0.,24.0,0.,24.0,0.,24.0,0.,24.0
1979-07-01 12:52:08.860 ,5,1,0.,24.0,0.,24.0,0.,24.0,0.,24.0
1979-07-01 12:52:32.860 ,5,0,0.,24.0,0.,24.0,0.,24.0,0.,24.0
1979-07-01 12:53:44.860 ,0,0,0.,24.0,0.,24.0,0.,24.0,0.,24.0
1979-07-01 12:54:08.860 ,0,0,0.,24.0,0.,24.0,0.,24.0,0.,24.0
1979-07-01 12:54:32.860 ,7,1,0.,24.0,0.,24.0,0.,24.0,0.,24.0
1979-07-01 12:54:56.860 ,7,0,0.,24.0,0.,24.0,0.,24.0,0.,24.0
1979-07-01 12:55:20.860 ,6,1,1.,24.0,0.,24.0,0.,24.0,0.,24.0
1979-07-01 12:55:44.860 ,6,0,0.,24.0,0.,24.0,0.,24.0,0.,24.0
1979-07-01 12:56:08.860 ,5,1,0.,24.0,0.,24.0,0.,24.0,0.,24.0
1979-07-01 12:56:32.860 ,5,0,0.,24.0,0.,24.0,0.,24.0,0.,24.0
1979-07-01 12:56:56.860 ,4,1,0.,24.0,0.,24.0,0.,24.0,0.,24.0
1979-07-01 12:57:20.860 ,4,0,0.,24.0,0.,24.0,0.,24.0,0.,24.0
1979-07-01 12:57:44.860 ,3,1,0.,24.0,0.,24.0,0.,24.0,0.,24.0
1979-07-01 12:58:08.860 ,3,0,0.,24.0,0.,24.0,0.,24.0,0.,24.0
1979-07-01 12:58:32.860 ,2,1,0.,24.0,0.,24.0,0.,24.0,0.,24.0
1979-07-01 12:58:56.860 ,2,0,0.,24.0,0.,24.0,0.,24.0,0.,24.0
1979-07-01 12:59:20.860 ,1,1,0.,24.0,0.,24.0,0.,24.0,0.,24.0
1979-07-01 12:59:44.860 ,1,0,0.,24.0,0.,24.0,0.,24.0,0.,24.0
1979-07-01 13:00:08.860 ,0,1,0.,24.0,0.,24.0,0.,24.0,0.,24.0
1979-07-01 13:00:32.860 ,0,0,0.,24.0,0.,24.0,0.,24.0,0.,24.0
1979-07-01 13:00:56.860 ,0,1,0.,24.0,0.,24.0,0.,24.0,0.,24.0
1979-07-01 13:01:20.860 ,0,0,0.,24.0,0.,24.0,0.,24.0,0.,24.0
1979-07-01 13:01:44.860 ,1,1,0.,24.0,0.,24.0,0.,24.0,0.,24.0
1979-07-01 13:02:08.860 ,1,0,0.,24.0,0.,24.0,0.,24.0,0.,24.0
1979-07-01 13:02:32.860 ,2,1,0.,24.0,0.,24.0,0.,24.0,0.,24.0
1979-07-01 13:02:56.860 ,2,0,0.,24.0,0.,24.0,0.,24.0,0.,24.0
1979-07-01 13:03:20.860 ,3,1,0.,24.0,0.,24.0,0.,24.0,0.,24.0
1979-07-01 13:03:44.860 ,3,0,0.,24.0,0.,24.0,0.,24.0,0.,24.0
1979-07-01 13:04:08.860 ,4,1,0.,24.0,0.,24.0,0.,24.0,0.,24.0
1979-07-01 13:04:32.860 ,4,0,0.,24.0,0.,24.0,0.,24.0,0.,24.0
1979-07-01 13:04:56.860 ,5,1,0.,24.0,0.,24.0,0.,24.0,0.,24.0
1979-07-01 13:05:20.860 ,5,0,0.,24.0,0.,24.0,0.,24.0,0.,24.0
1979-07-01 13:05:44.860 ,6,1,0.,24.0,0.,24.0,0.,24.0,0.,24.0
1979-07-01 13:06:08.860 ,6,0,0.,24.0,0.,24.0,0.,24.0,0.,24.0
1979-07-01 13:06:32.860 ,7,0,0.,24.0,0.,24.0,0.,24.0,0.,24.0
1979-07-01 13:06:56.860 ,7,0,0.,24.0,0.,24.0,0.,24.0,0.,24.0
1979-07-01 13:07:20.860 ,5,1,0.,24.0,0.,24.0,0.,24.0,0.,24.0
1979-07-01 13:07:44.860 ,1,1,0.,24.0,0.,24.0,0.,24.0,0.,24.0
1979-07-01 13:08:08.860 ,2,1,0.,24.0,0.,24.0,0.,24.0,0.,24.0
1979-07-01 13:08:32.860 ,6,1,0.,24.0,0.,24.0,0.,24.0,0.,24.0
1979-07-01 13:08:56.860 ,5,1,0.,24.0,0.,24.0,0.,24.0,0.,24.0
1979-07-01 13:09:20.860 ,1,1,0.,24.0,0.,24.0,0.,24.0,0.,24.0
1979-07-01 13:09:44.860 ,2,1,0.,24.0,0.,24.0,0.,24.0,0.,24.0
1979-07-01 13:10:08.860 ,6,1,1.,24.0,0.,24.0,0.,24.0,0.,24.0
1979-07-01 13:10:32.860 ,5,1,0.,24.0,0.,24.0,0.,24.0,0.,24.0
1979-07-01 13:10:56.860 ,1,1,0.,24.0,0.,24.0,0.,24.0,0.,24.0
1979-07-01 13:11:20.860 ,2,1,0.,24.0,0.,24.0,0.,24.0,0.,24.0
1979-07-01 13:11:44.860 ,6,1,0.,24.0,0.,24.0,0.,24.0,0.,24.0
1979-07-01 13:12:08.860 ,5,1,0.,24.0,0.,24.0,0.,24.0,0.,24.0
1979-07-01 13:12:32.860 ,1,1,0.,24.0,0.,24.0,0.,24.0,0.,24.0
1979-07-01 13:12:56.860 ,2,1,0.,24.0,0.,24.0,0.,24.0,0.,24.0
1979-07-01 13:13:20.860 ,6,1,0.,24.0,0.,24.0,0.,24.0,0.,24.0
1979-07-01 13:13:44.860 ,5,1,1.,24.0,0.,24.0,0.,24.0,0.,24.0
1979-07-01 13:14:08.860 ,0,0,0.,24.0,0.,24.0,0.,24.0,0.,24.0
1979-07-01 13:15:35.260 ,0,0,,0,,0,,0,,0
1979-07-01 13:15:44.860 ,1,1,0.,24.0,0.,24.0,0.,24.0,0.,24.0
1979-07-01 13:16:08.860 ,2,1,1.,24.0,0.,24.0,0.,24.0,0.,24.0
1979-07-01 13:16:32.860 ,6,1,0.,24.0,0.,24.0,0.,24.0,0.,24.0
1979-07-01 13:16:56.860 ,5,1,0.,24.0,0.,24.0,0.,24.0,0.,24.0
1979-07-01 13:17:20.860 ,1,1,0.,24.0,0.,24.0,0.,24.0,0.,24.0
1979-07-01 13:17:44.860 ,0,0,0.,24.0,0.,24.0,0.,24.0,0.,24.0
1979-07-01 13:18:08.860 ,0,0,0.,24.0,0.,24.0,0.,24.0,0.,24.0
1979-07-01 13:18:32.860 ,5,1,0.,24.0,0.,24.0,0.,24.0,0.,24.0
1979-07-01 13:18:56.860 ,5,0,0.,24.0,0.,24.0,0.,24.0,0.,24.0
1979-07-01 13:19:20.860 ,4,1,0.,24.0,0.,24.0,0.,24.0,0.,24.0
1979-07-01 13:19:44.860 ,4,0,0.,24.0,0.,24.0,0.,24.0,0.,24.0
1979-07-01 13:20:08.860 ,3,1,0.,24.0,0.,24.0,0.,24.0,0.,24.0
1979-07-01 13:20:32.860 ,3,0,0.,24.0,0.,24.0,0.,24.0,0.,24.0
1979-07-01 13:20:56.860 ,2,1,0.,24.0,0.,24.0,0.,24.0,0.,24.0
1979-07-01 13:21:20.860 ,2,0,0.,24.0,0.,24.0,0.,24.0,0.,24.0
1979-07-01 13:21:44.860 ,1,1,0.,24.0,0.,24.0,0.,24.0,0.,24.0
1979-07-01 13:22:08.860 ,1,0,0.,24.0,0.,24.0,0.,24.0,0.,24.0
1979-07-01 13:22:32.860 ,0,1,0.,24.0,0.,24.0,0.,24.0,0.,24.0
1979-07-01 13:22:56.860 ,0,0,0.,24.0,0.,24.0,0.,24.0,0.,24.0
1979-07-01 13:23:20.860 ,0,1,0.,24.0,0.,24.0,0.,24.0,0.,24.0
1979-07-01 13:23:44.860 ,0,0,0.,24.0,0.,24.0,0.,24.0,0.,24.0
1979-07-01 13:24:08.860 ,0,0,0.,24.0,0.,24.0,0.,24.0,0.,24.0
1979-07-01 13:24:32.860 ,0,0,,0,,0,,0,,0
1979-07-01 13:25:44.860 ,0,0,0.,24.0,0.,24.0,0.,24.0,0.,24.0
1979-07-01 13:26:08.860 ,0,0,0.,24.0,0.,24.0,0.,24.0,0.,24.0
1979-07-01 13:26:32.860 ,4,1,0.,24.0,0.,24.0,0.,24.0,0.,24.0
1979-07-01 13:26:56.860 ,4,0,0.,24.0,0.,24.0,0.,24.0,0.,24.0
1979-07-01 13:27:20.860 ,5,1,0.,24.0,0.,24.0,0.,24.0,0.,24.0
1979-07-01 13:27:44.860 ,5,0,0.,24.0,0.,24.0,0.,24.0,0.,24.0
1979-07-01 13:28:08.860 ,6,1,0.,24.0,0.,24.0,0.,24.0,0.,24.0
1979-07-01 13:28:32.860 ,6,0,0.,24.0,0.,24.0,0.,24.0,0.,24.0
1979-07-01 13:28:56.860 ,7,1,0.,24.0,0.,24.0,0.,24.0,0.,24.0
1979-07-01 13:29:20.860 ,7,0,0.,24.0,0.,24.0,0.,24.0,0.,24.0
1979-07-01 13:29:44.860 ,7,1,0.,24.0,0.,24.0,0.,24.0,0.,24.0
1979-07-01 13:30:08.860 ,7,0,0.,24.0,0.,24.0,0.,24.0,0.,24.0
1979-07-01 13:30:32.860 ,6,1,0.,24.0,0.,24.0,0.,24.0,0.,24.0
1979-07-01 13:30:56.860 ,6,0,0.,24.0,0.,24.0,0.,24.0,0.,24.0
1979-07-01 13:31:20.860 ,5,1,0.,24.0,0.,24.0,0.,24.0,0.,24.0
1979-07-01 13:31:44.860 ,5,0,0.,24.0,0.,24.0,0.,24.0,0.,24.0
1979-07-01 13:32:08.860 ,4,1,0.,24.0,0.,24.0,0.,24.0,0.,24.0
1979-07-01 13:32:32.860 ,4,0,0.,24.0,0.,24.0,0.,24.0,0.,24.0
1979-07-01 13:32:56.860 ,3,1,0.,24.0,0.,24.0,0.,24.0,0.,24.0
1979-07-01 13:33:20.860 ,3,0,0.,24.0,0.,24.0,0.,24.0,0.,24.0
1979-07-01 13:33:44.860 ,2,1,1.,24.0,0.,24.0,0.,24.0,0.,24.0
1979-07-01 13:34:08.860 ,2,0,0.,24.0,0.,24.0,0.,24.0,0.,24.0
1979-07-01 13:34:32.860 ,1,1,0.,24.0,0.,24.0,0.,24.0,0.,24.0
1979-07-01 13:34:56.860 ,1,0,0.,24.0,0.,24.0,0.,24.0,0.,24.0
1979-07-01 13:35:20.860 ,0,1,0.,24.0,0.,24.0,0.,24.0,0.,24.0
1979-07-01 13:35:44.860 ,0,0,0.,24.0,0.,24.0,0.,24.0,0.,24.0
1979-07-01 13:36:08.860 ,0,1,0.,24.0,0.,24.0,0.,24.0,0.,24.0
1979-07-01 13:36:32.860 ,0,0,0.,24.0,0.,24.0,0.,24.0,0.,24.0
1979-07-01 13:36:56.860 ,1,1,0.,24.0,0.,24.0,0.,24.0,0.,24.0
1979-07-01 13:37:20.860 ,1,0,0.,24.0,0.,24.0,0.,24.0,0.,24.0
1979-07-01 13:37:44.860 ,2,1,0.,24.0,0.,24.0,0.,24.0,0.,24.0
1979-07-01 13:38:08.860 ,2,0,0.,24.0,0.,24.0,0.,24.0,0.,24.0
1979-07-01 13:38:32.860 ,3,1,0.,24.0,0.,24.0,0.,24.0,0.,24.0
1979-07-01 13:38:56.860 ,3,0,0.,24.0,0.,24.0,0.,24.0,0.,24.0
1979-07-01 13:39:20.860 ,4,1,0.,24.0,0.,24.0,0.,24.0,0.,24.0
1979-07-01 13:39:44.860 ,4,0,0.,24.0,0.,24.0,0.,24.0,0.,24.0
1979-07-01 13:40:08.860 ,5,1,0.,24.0,0.,24.0,0.,24.0,0.,24.0
1979-07-01 13:40:32.860 ,5,0,0.,24.0,0.,24.0,0.,24.0,0.,24.0
1979-07-01 13:40:56.860 ,6,1,1.,24.0,0.,24.0,0.,24.0,0.,24.0
1979-07-01 13:41:20.860 ,6,0,0.,24.0,0.,24.0,0.,24.0,0.,24.0
1979-07-01 13:41:44.860 ,7,1,0.,24.0,0.,24.0,0.,24.0,0.,24.0
1979-07-01 13:42:08.860 ,7,0,0.,24.0,0.,24.0,0.,24.0,0.,24.0
1979-07-01 13:42:32.860 ,7,1,0.,24.0,0.,24.0,0.,24.0,0.,24.0
1979-07-01 13:42:56.860 ,7,0,0.,24.0,0.,24.0,0.,24.0,0.,24.0
1979-07-01 13:43:20.860 ,6,1,0.,24.0,0.,24.0,0.,24.0,0.,24.0
1979-07-01 13:43:44.860 ,6,0,1.,24.0,0.,24.0,0.,24.0,0.,24.0
1979-07-01 13:44:08.860 ,5,1,0.,24.0,0.,24.0,0.,24.0,0.,24.0
1979-07-01 13:44:32.860 ,5,0,0.,24.0,0.,24.0,0.,24.0,0.,24.0
1979-07-01 13:44:56.860 ,4,1,0.,24.0,0.,24.0,0.,24.0,0.,24.0
1979-07-01 13:45:20.860 ,4,0,0.,24.0,0.,24.0,0.,24.0,0.,24.0
1979-07-01 13:45:44.860 ,3,1,0.,24.0,0.,24.0,0.,24.0,0.,24.0
1979-07-01 13:46:08.860 ,3,0,0.,24.0,0.,24.0,0.,24.0,0.,24.0
1979-07-01 13:46:32.860 ,2,1,0.,24.0,0.,24.0,0.,24.0,0.,24.0
1979-07-01 13:46:56.860 ,2,0,0.,24.0,0.,24.0,0.,24.0,0.,24.0
1979-07-01 13:47:20.860 ,1,1,0.,24.0,0.,24.0,0.,24.0,0.,24.0
1979-07-01 13:47:44.860 ,1,0,0.,24.0,0.,24.0,0.,24.0,0.,24.0
1979-07-01 13:48:08.860 ,0,1,0.,24.0,0.,24.0,0.,24.0,0.,24.0
1979-07-01 13:48:32.860 ,0,0,0.,24.0,0.,24.0,0.,24.0,0.,24.0
1979-07-01 13:48:56.860 ,0,1,0.,24.0,0.,24.0,0.,24.0,0.,24.0
1979-07-01 13:49:20.860 ,0,0,0.,24.0,0.,24.0,0.,24.0,0.,24.0
1979-07-01 13:49:44.860 ,1,1,0.,24.0,0.,24.0,0.,24.0,0.,24.0
1979-07-01 13:50:08.860 ,1,0,0.,24.0,0.,24.0,0.,24.0,0.,24.0
1979-07-01 13:50:32.860 ,2,1,0.,24.0,0.,24.0,0.,24.0,0.,24.0
1979-07-01 13:50:56.860 ,2,0,0.,24.0,0.,24.0,0.,24.0,0.,24.0
1979-07-01 13:51:20.860 ,3,1,0.,24.0,0.,24.0,0.,24.0,0.,24.0
1979-07-01 13:51:44.860 ,3,0,0.,24.0,0.,24.0,0.,24.0,0.,24.0
1979-07-01 13:52:08.860 ,4,1,0.,24.0,0.,24.0,0.,24.0,0.,24.0
1979-07-01 13:52:32.860 ,4,0,0.,24.0,0.,24.0,0.,24.0,0.,24.0
1979-07-01 13:52:56.860 ,5,1,0.,24.0,0.,24.0,0.,24.0,0.,24.0
1979-07-01 13:53:20.860 ,5,0,0.,24.0,0.,24.0,0.,24.0,0.,24.0
1979-07-01 13:53:44.860 ,6,1,0.,24.0,0.,24.0,0.,24.0,0.,24.0
1979-07-01 13:54:08.860 ,6,0,0.,24.0,0.,24.0,0.,24.0,0.,24.0
1979-07-01 13:54:32.860 ,7,0,0.,24.0,0.,24.0,0.,24.0,0.,24.0
1979-07-01 13:54:56.860 ,7,0,1.,24.0,0.,24.0,0.,24.0,0.,24.0
1979-07-01 13:55:20.860 ,5,1,0.,24.0,0.,24.0,0.,24.0,0.,24.0
1979-07-01 13:55:44.860 ,1,1,0.,24.0,0.,24.0,0.,24.0,0.,24.0
1979-07-01 13:56:08.860 ,2,1,0.,24.0,0.,24.0,0.,24.0,0.,24.0
1979-07-01 13:56:32.860 ,6,1,0.,24.0,0.,24.0,0.,24.0,0.,24.0
1979-07-01 13:56:56.860 ,5,1,0.,24.0,0.,24.0,0.,24.0,0.,24.0
1979-07-01 13:57:20.860 ,1,1,0.,24.0,0.,24.0,0.,24.0,0.,24.0
1979-07-01 13:57:44.860 ,2,1,0.,24.0,0.,24.0,0.,24.0,0.,24.0
1979-07-01 13:58:08.860 ,6,1,0.,24.0,0.,24.0,0.,24.0,0.,24.0
1979-07-01 13:58:32.860 ,5,1,0.,24.0,0.,24.0,0.,24.0,0.,24.0
1979-07-01 13:58:56.860 ,1,1,0.,24.0,0.,24.0,0.,24.0,0.,24.0
1979-07-01 13:59:20.860 ,2,1,1.,24.0,0.,24.0,0.,24.0,0.,24.0
1979-07-01 13:59:44.860 ,6,1,0.,24.0,0.,24.0,0.,24.0,0.,24.0
1979-07-01 14:00:08.860 ,5,1,0.,24.0,0.,24.0,0.,24.0,0.,24.0
1979-07-01 14:00:32.860 ,1,1,0.,24.0,0.,24.0,0.,24.0,0.,24.0
1979-07-01 14:00:56.860 ,2,1,0.,24.0,0.,24.0,0.,24.0,0.,24.0
1979-07-01 14:01:20.860 ,6,1,0.,24.0,0.,24.0,0.,24.0,0.,24.0
1979-07-01 14:01:44.860 ,5,1,0.,24.0,0.,24.0,0.,24.0,0.,24.0
1979-07-01 14:02:08.860 ,1,1,0.,24.0,0.,24.0,0.,24.0,0.,24.0
1979-07-01 14:02:32.860 ,2,1,0.,24.0,0.,24.0,0.,24.0,0.,24.0
1979-07-01 14:02:56.860 ,6,1,0.,24.0,0.,24.0,0.,24.0,0.,24.0
1979-07-01 14:03:20.860 ,5,1,0.,24.0,0.,24.0,0.,24.0,0.,24.0
1979-07-01 14:03:44.860 ,1,1,0.,24.0,0.,24.0,0.,24.0,0.,24.0
1979-07-01 14:04:08.860 ,2,1,0.,24.0,0.,24.0,0.,24.0,0.,24.0
1979-07-01 14:04:32.860 ,6,1,0.,24.0,0.,24.0,0.,24.0,0.,24.0
1979-07-01 14:04:56.860 ,5,1,0.,24.0,0.,24.0,0.,24.0,0.,24.0
1979-07-01 14:05:20.860 ,1,1,0.,24.0,0.,24.0,0.,24.0,0.,24.0
1979-07-01 14:05:44.860 ,0,0,0.,24.0,0.,24.0,0.,24.0,0.,24.0
1979-07-01 14:06:08.860 ,0,0,0.,24.0,0.,24.0,0.,24.0,0.,24.0
1979-07-01 14:06:32.860 ,5,1,0.,24.0,0.,24.0,0.,24.0,0.,24.0
1979-07-01 14:06:56.860 ,5,0,0.,24.0,0.,24.0,0.,24.0,0.,24.0
1979-07-01 14:07:20.860 ,4,1,0.,24.0,0.,24.0,0.,24.0,0.,24.0
1979-07-01 14:07:44.860 ,4,0,0.,24.0,0.,24.0,0.,24.0,0.,24.0
1979-07-01 14:08:08.860 ,3,1,0.,24.0,0.,24.0,0.,24.0,0.,24.0
1979-07-01 14:08:32.860 ,3,0,0.,24.0,0.,24.0,0.,24.0,0.,24.0
1979-07-01 14:08:56.860 ,2,1,0.,24.0,0.,24.0,0.,24.0,0.,24.0
1979-07-01 14:09:20.860 ,2,0,0.,24.0,0.,24.0,0.,24.0,0.,24.0
1979-07-01 14:09:44.860 ,1,1,0.,24.0,0.,24.0,0.,24.0,0.,24.0
1979-07-01 14:10:08.860 ,1,0,0.,24.0,0.,24.0,0.,24.0,0.,24.0
1979-07-01 14:10:32.860 ,0,1,0.,24.0,0.,24.0,0.,24.0,0.,24.0
1979-07-01 14:10:56.860 ,0,0,0.,24.0,0.,24.0,0.,24.0,0.,24.0
1979-07-01 14:11:20.860 ,0,1,0.,24.0,0.,24.0,0.,24.0,0.,24.0
1979-07-01 14:11:44.860 ,0,0,0.,24.0,0.,24.0,0.,24.0,0.,24.0
1979-07-01 14:12:08.860 ,1,1,0.,24.0,0.,24.0,0.,24.0,0.,24.0
1979-07-01 14:12:32.860 ,1,0,0.,24.0,0.,24.0,0.,24.0,0.,24.0
1979-07-01 14:12:56.860 ,2,1,0.,24.0,0.,24.0,0.,24.0,0.,24.0
1979-07-01 14:13:20.860 ,2,0,1.,24.0,0.,24.0,0.,24.0,0.,24.0
1979-07-01 14:13:44.860 ,3,1,0.,24.0,0.,24.0,0.,24.0,0.,24.0
1979-07-01 14:14:08.860 ,3,0,0.,24.0,0.,24.0,0.,24.0,0.,24.0
1979-07-01 14:14:32.860 ,4,1,0.,24.0,0.,24.0,0.,24.0,0.,24.0
1979-07-01 14:14:56.860 ,4,0,0.,24.0,0.,24.0,0.,24.0,0.,24.0
1979-07-01 14:15:20.860 ,5,1,0.,24.0,0.,24.0,0.,24.0,0.,24.0
1979-07-01 14:15:44.860 ,5,0,0.,24.0,0.,24.0,0.,24.0,0.,24.0
1979-07-01 14:16:08.860 ,6,1,0.,24.0,0.,24.0,0.,24.0,0.,24.0
1979-07-01 14:16:32.860 ,6,0,0.,24.0,0.,24.0,0.,24.0,0.,24.0
1979-07-01 14:16:56.860 ,7,1,0.,24.0,0.,24.0,0.,24.0,0.,24.0
1979-07-01 14:17:20.860 ,7,0,0.,24.0,0.,24.0,0.,24.0,0.,24.0
1979-07-01 14:17:44.860 ,7,1,0.,24.0,0.,24.0,0.,24.0,0.,24.0
1979-07-01 14:18:08.860 ,7,0,0.,24.0,0.,24.0,0.,24.0,0.,24.0
1979-07-01 14:18:32.860 ,6,1,1.,24.0,0.,24.0,0.,24.0,0.,24.0
1979-07-01 14:18:56.860 ,6,0,0.,24.0,0.,24.0,0.,24.0,0.,24.0
1979-07-01 14:19:20.860 ,5,1,0.,24.0,0.,24.0,0.,24.0,0.,24.0
1979-07-01 14:19:44.860 ,5,0,0.,24.0,0.,24.0,0.,24.0,0.,24.0
1979-07-01 14:20:08.860 ,4,1,0.,24.0,0.,24.0,0.,24.0,0.,24.0
1979-07-01 14:20:32.860 ,4,0,0.,24.0,0.,24.0,0.,24.0,0.,24.0
1979-07-01 14:20:56.860 ,3,1,0.,24.0,0.,24.0,0.,24.0,0.,24.0
1979-07-01 14:21:20.860 ,3,0,0.,24.0,0.,24.0,0.,24.0,0.,24.0
1979-07-01 14:21:44.860 ,2,1,0.,24.0,0.,24.0,0.,24.0,0.,24.0
1979-07-01 14:22:08.860 ,2,0,0.,24.0,0.,24.0,0.,24.0,0.,24.0
1979-07-01 14:22:32.860 ,1,1,0.,24.0,0.,24.0,0.,24.0,0.,24.0
1979-07-01 14:22:56.860 ,1,0,0.,24.0,0.,24.0,0.,24.0,0.,24.0
1979-07-01 14:23:20.860 ,0,1,0.,24.0,0.,24.0,0.,24.0,0.,24.0
1979-07-01 14:23:44.860 ,0,0,0.,24.0,0.,24.0,0.,24.0,0.,24.0
1979-07-01 14:24:08.860 ,0,1,0.,24.0,0.,24.0,0.,24.0,0.,24.0
1979-07-01 14:24:32.860 ,0,0,0.,24.0,0.,24.0,0.,24.0,0.,24.0
1979-07-01 14:24:56.860 ,1,1,0.,24.0,0.,24.0,0.,24.0,0.,24.0
1979-07-01 14:25:20.860 ,1,0,0.,24.0,0.,24.0,0.,24.0,0.,24.0
1979-07-01 14:25:44.860 ,2,1,0.,24.0,0.,24.0,0.,24.0,0.,24.0
1979-07-01 14:26:08.860 ,2,0,0.,24.0,0.,24.0,0.,24.0,0.,24.0
1979-07-01 14:26:32.860 ,3,1,0.,24.0,0.,24.0,0.,24.0,0.,24.0
1979-07-01 14:26:56.860 ,3,0,0.,24.0,0.,24.0,0.,24.0,0.,24.0
1979-07-01 14:27:20.860 ,4,1,0.,24.0,0.,24.0,0.,24.0,0.,24.0
1979-07-01 14:27:44.860 ,4,0,0.,24.0,0.,24.0,0.,24.0,0.,24.0
1979-07-01 14:28:56.860 ,0,0,0.,24.0,0.,24.0,0.,24.0,0.,24.0
1979-07-01 14:29:20.860 ,0,0,0.,24.0,0.,24.0,0.,24.0,0.,24.0
1979-07-01 14:29:44.860 ,7,1,0.,24.0,0.,24.0,0.,24.0,0.,24.0
1979-07-01 14:30:08.860 ,7,0,0.,24.0,0.,24.0,0.,24.0,0.,24.0
1979-07-01 14:30:32.850 ,7,1,0.,24.0,0.,24.0,0.,24.0,0.,24.0
1979-07-01 14:30:56.850 ,7,0,0.,24.0,0.,24.0,0.,24.0,0.,24.0
1979-07-01 14:31:20.850 ,6,1,0.,24.0,0.,24.0,0.,24.0,0.,24.0
1979-07-01 14:31:44.850 ,6,0,0.,24.0,0.,24.0,0.,24.0,0.,24.0
1979-07-01 14:32:08.850 ,5,1,0.,24.0,0.,24.0,0.,24.0,0.,24.0
1979-07-01 14:32:32.850 ,5,0,0.,24.0,0.,24.0,0.,24.0,0.,24.0
1979-07-01 14:32:56.850 ,4,1,0.,24.0,0.,24.0,0.,24.0,0.,24.0
1979-07-01 14:33:20.850 ,4,0,0.,24.0,0.,24.0,0.,24.0,0.,24.0
1979-07-01 14:33:44.850 ,3,1,0.,24.0,0.,24.0,0.,24.0,0.,24.0
1979-07-01 14:34:08.850 ,3,0,,0,,0,,0,,0
1979-07-01 14:34:32.850 ,2,1,0.,24.0,0.,24.0,0.,24.0,0.,24.0
1979-07-01 14:34:56.850 ,2,0,0.,24.0,0.,24.0,0.,24.0,1.,24.0
1979-07-01 14:35:20.850 ,1,1,0.,24.0,0.,24.0,0.,24.0,0.,24.0
1979-07-01 14:35:44.850 ,1,0,0.,24.0,0.,24.0,0.,24.0,0.,24.0
1979-07-01 14:36:08.850 ,0,1,0.,24.0,0.,24.0,0.,24.0,0.,24.0
1979-07-01 14:36:32.850 ,0,0,0.,24.0,0.,24.0,0.,24.0,0.,24.0
1979-07-01 14:36:56.850 ,0,1,0.,24.0,0.,24.0,0.,24.0,0.,24.0
1979-07-01 14:37:20.850 ,0,0,2.,24.0,0.,24.0,0.,24.0,0.,24.0
1979-07-01 14:37:44.850 ,1,1,1.,24.0,0.,24.0,0.,24.0,0.,24.0
1979-07-01 14:38:08.850 ,1,0,0.,24.0,0.,24.0,0.,24.0,0.,24.0
1979-07-01 14:38:32.850 ,2,1,0.,24.0,0.,24.0,0.,24.0,0.,24.0
1979-07-01 14:38:56.850 ,2,0,0.,24.0,0.,24.0,0.,24.0,0.,24.0
1979-07-01 14:39:20.850 ,3,1,0.,24.0,0.,24.0,0.,24.0,0.,24.0
1979-07-01 14:39:44.850 ,3,0,1.,24.0,0.,24.0,0.,24.0,0.,24.0
1979-07-01 14:40:08.850 ,4,1,0.,24.0,0.,24.0,0.,24.0,0.,24.0
1979-07-01 14:40:32.850 ,4,0,1.,24.0,0.,24.0,0.,24.0,0.,24.0
1979-07-01 14:40:56.850 ,5,1,0.,24.0,0.,24.0,0.,24.0,0.,24.0
1979-07-01 14:41:20.850 ,5,0,0.,24.0,0.,24.0,0.,24.0,0.,24.0
1979-07-01 14:41:44.850 ,6,1,0.,24.0,0.,24.0,0.,24.0,0.,24.0
1979-07-01 14:42:08.850 ,6,0,0.,24.0,0.,24.0,0.,24.0,0.,24.0
1979-07-01 14:42:32.850 ,7,0,0.,24.0,0.,24.0,0.,24.0,0.,24.0
1979-07-01 14:42:56.850 ,7,0,0.,24.0,0.,24.0,0.,24.0,0.,24.0
1979-07-01 14:44:08.850 ,0,0,0.,24.0,0.,24.0,0.,24.0,0.,24.0
1979-07-01 14:44:32.850 ,6,1,0.,24.0,0.,24.0,0.,24.0,0.,24.0
1979-07-01 14:44:56.850 ,5,1,0.,24.0,0.,24.0,0.,24.0,0.,24.0
1979-07-01 14:45:20.850 ,1,1,0.,24.0,0.,24.0,0.,24.0,0.,24.0
1979-07-01 14:45:44.850 ,2,1,0.,24.0,0.,24.0,0.,24.0,0.,24.0
1979-07-01 14:46:08.850 ,6,1,0.,24.0,0.,24.0,0.,24.0,0.,24.0
1979-07-01 14:46:32.850 ,5,1,0.,24.0,0.,24.0,0.,24.0,0.,24.0
1979-07-01 14:46:56.850 ,1,1,0.,24.0,0.,24.0,0.,24.0,0.,24.0
1979-07-01 14:47:20.850 ,2,1,0.,24.0,0.,24.0,0.,24.0,0.,24.0
1979-07-01 14:47:44.850 ,6,1,0.,24.0,0.,24.0,0.,24.0,0.,24.0
1979-07-01 14:48:08.850 ,5,1,0.,24.0,0.,24.0,0.,24.0,0.,24.0
1979-07-01 14:48:32.850 ,1,1,1.,24.0,0.,24.0,0.,24.0,0.,24.0
1979-07-01 14:48:56.850 ,2,1,0.,24.0,0.,24.0,0.,24.0,0.,24.0
1979-07-01 14:49:20.850 ,6,1,0.,24.0,0.,24.0,0.,24.0,0.,24.0
1979-07-01 14:49:44.850 ,5,1,0.,24.0,0.,24.0,0.,24.0,0.,24.0
1979-07-01 14:50:08.850 ,1,1,0.,24.0,0.,24.0,0.,24.0,0.,24.0
1979-07-01 14:50:32.850 ,2,1,0.,24.0,0.,24.0,0.,24.0,0.,24.0
1979-07-01 14:50:56.850 ,6,1,0.,24.0,0.,24.0,0.,24.0,0.,24.0
1979-07-01 14:51:20.850 ,5,1,0.,24.0,0.,24.0,0.,24.0,0.,24.0
1979-07-01 14:51:44.850 ,1,1,0.,24.0,0.,24.0,0.,24.0,0.,24.0
1979-07-01 14:52:08.850 ,2,1,0.,24.0,0.,24.0,0.,24.0,0.,24.0
1979-07-01 14:52:32.850 ,6,1,0.,24.0,0.,24.0,0.,24.0,0.,24.0
1979-07-01 14:52:56.850 ,5,1,0.,24.0,0.,24.0,0.,24.0,0.,24.0
1979-07-01 14:53:20.850 ,1,1,0.,24.0,0.,24.0,0.,24.0,0.,24.0
1979-07-01 14:53:44.850 ,0,0,0.,24.0,0.,24.0,0.,24.0,0.,24.0
1979-07-01 14:54:08.850 ,0,0,0.,24.0,0.,24.0,0.,24.0,0.,24.0
1979-07-01 14:54:32.850 ,5,1,0.,24.0,0.,24.0,0.,24.0,0.,24.0
1979-07-01 14:54:56.850 ,5,0,0.,24.0,0.,24.0,0.,24.0,0.,24.0
1979-07-01 14:55:20.850 ,4,1,0.,24.0,0.,24.0,0.,24.0,0.,24.0
1979-07-01 14:55:44.850 ,4,0,0.,24.0,0.,24.0,0.,24.0,0.,24.0
1979-07-01 14:56:08.850 ,3,1,0.,24.0,0.,24.0,0.,24.0,0.,24.0
1979-07-01 14:56:32.850 ,3,0,0.,24.0,0.,24.0,0.,24.0,0.,24.0
1979-07-01 14:56:56.850 ,2,1,0.,24.0,0.,24.0,0.,24.0,0.,24.0